This is the latest recevied weather packets stored in our database for station/object W5GMO. If no packets are shown the sender has not sent any weather packets the latest 10 day(s).
| Time | Temp. | Humidity | Pressure | Rain* | Wind** | Luminosity | Snow |
|---|---|---|---|---|---|---|---|
| 1787843932 | 27.78° C | 1% | 1015.9 hPa | 0 mm | - | 323 W/m² | - |
| 1787843627 | 27.78° C | 1% | 1016.1 hPa | 0 mm | - | 329 W/m² | - |
| 1787843324 | 27.78° C | 1% | 1015.9 hPa | 0 mm | - | 382 W/m² | - |
| 1787843019 | 27.78° C | 1% | 1016.1 hPa | 0 mm | - | 565 W/m² | - |
| 1787842718 | 27.22° C | 1% | 1015.9 hPa | 0 mm | - | 348 W/m² | - |
| 1787842414 | 26.67° C | 1% | 1016.2 hPa | 0 mm | - | 311 W/m² | - |
| 1787842113 | 26.67° C | 1% | 1016.3 hPa | 0 mm | - | 319 W/m² | - |
| 1787841816 | 27.22° C | 1% | 1016.2 hPa | 0 mm | - | 302 W/m² | - |
| 1787841504 | 27.22° C | 1% | 1016.2 hPa | 0 mm | - | 299 W/m² | - |
| 1787841203 | 27.22° C | 1% | 1015.9 hPa | 0 mm | - | 337 W/m² | - |
| 1787840899 | 26.67° C | 1% | 1016.2 hPa | 0 mm | - | 323 W/m² | - |
| 1787840599 | 27.22° C | 1% | 1016.3 hPa | 0 mm | - | 310 W/m² | - |
| 1787840295 | 27.22° C | 1% | 1015.9 hPa | 0 mm | - | 301 W/m² | - |
| 1787839994 | 26.67° C | 1% | 1016.2 hPa | 0 mm | - | 286 W/m² | - |
| 1787839689 | 26.67° C | 1% | 1016.1 hPa | 0 mm | - | 252 W/m² | - |
| 1787839383 | 27.22° C | 1% | 1016.1 hPa | 0 mm | - | 230 W/m² | - |
| 1787839083 | 27.22° C | 1% | 1016.1 hPa | 0 mm | - | 303 W/m² | - |
| 1787838782 | 27.22° C | 1% | 1015.8 hPa | 0 mm | - | 289 W/m² | - |
| 1787838478 | 27.22° C | 1% | 1015.9 hPa | 0 mm | - | 314 W/m² | - |
| 1787838176 | 26.11° C | 1% | 1015.9 hPa | 0 mm | - | 308 W/m² | - |
| 1787837870 | 26.67° C | 1% | 1015.9 hPa | 0 mm | - | 352 W/m² | - |
| 1787837570 | 26.67° C | 1% | 1015.8 hPa | 0 mm | - | 284 W/m² | - |
| 1787837269 | 26.11° C | 1% | 1015.8 hPa | 0 mm | - | 287 W/m² | - |
| 1787836965 | 25.56° C | 1% | 1016 hPa | 0 mm | - | 296 W/m² | - |
| 1787836665 | 25.56° C | 1% | 1015.9 hPa | 0 mm | - | 181 W/m² | - |
* Rain latest hour (hover to see other rain measurements)
** Current wind speed in m/s (hover to see current wind gust speed)